Time,TemperatureF,DewpointF,PressureIn,WindDirection,WindDirectionDegrees,WindSpeedMPH,WindSpeedGustMPH,Humidity,HourlyPrecipIn,Conditions,Clouds,dailyrainin,SolarRadiationWatts/m^2,SoftwareType,DateUTC
2013-10-18 00:00:00,61.6,22.4,30.01,WSW,248,3.0,6.0,22,0.00,,---,0.00,0.00,VWS V14.01,2013-10-18 07:00:00,
2013-10-18 00:13:00,61.6,22.0,30.02,WSW,243,4.0,6.0,22,0.00,,,0.00,0,weatherlink.com 1.10,2013-10-18 07:13:00,
2013-10-18 00:15:00,61.7,22.5,30.02,WSW,248,3.0,6.0,22,0.00,,---,0.00,0.00,VWS V14.01,2013-10-18 07:15:00,
2013-10-18 00:28:00,61.2,22.0,30.02,WSW,243,4.0,5.0,22,0.00,,,0.00,0,weatherlink.com 1.10,2013-10-18 07:28:00,
2013-10-18 00:30:00,61.4,22.2,30.03,WSW,248,3.0,6.0,22,0.00,,---,0.00,0.00,VWS V14.01,2013-10-18 07:30:00,
2013-10-18 00:43:00,60.7,21.0,30.02,WSW,242,1.0,5.0,22,0.00,,,0.00,0,weatherlink.com 1.10,2013-10-18 07:43:00,
2013-10-18 00:45:00,60.8,22.8,30.02,WSW,248,2.0,5.0,23,0.00,,---,0.00,0.00,VWS V14.01,2013-10-18 07:45:00,
2013-10-18 00:58:00,60.1,22.0,30.02,WSW,255,1.0,6.0,23,0.00,,,0.00,0,weatherlink.com 1.10,2013-10-18 07:58:00,
2013-10-18 01:00:00,60.3,22.4,30.03,WSW,248,2.0,6.0,23,0.00,,---,0.00,0.00,VWS V14.01,2013-10-18 08:00:00,
2013-10-18 01:13:00,59.2,21.0,30.03,WSW,249,3.0,5.0,23,0.00,,,0.00,0,weatherlink.com 1.10,2013-10-18 08:13:00,
2013-10-18 01:15:00,59.4,21.6,30.02,WSW,248,3.0,5.0,23,0.00,,---,0.00,0.00,VWS V14.01,2013-10-18 08:15:00,
2013-10-18 01:28:00,58.6,22.0,30.03,West,268,2.0,5.0,24,0.00,,,0.00,0,weatherlink.com 1.10,2013-10-18 08:28:00,
2013-10-18 01:30:00,58.8,22.1,30.03,West,270,3.0,5.0,24,0.00,,---,0.00,0.00,VWS V14.01,2013-10-18 08:30:00,
2013-10-18 01:43:00,58.0,21.0,30.03,WSW,258,4.0,5.0,24,0.00,,,0.00,0,weatherlink.com 1.10,2013-10-18 08:43:00,
2013-10-18 01:45:00,58.1,21.5,30.04,WSW,248,3.0,5.0,24,0.00,,---,0.00,0.00,VWS V14.01,2013-10-18 08:45:00,
2013-10-18 01:58:00,57.5,21.0,30.04,West,259,0.0,3.0,24,0.00,,,0.00,0,weatherlink.com 1.10,2013-10-18 08:58:00,
2013-10-18 02:00:00,57.6,21.1,30.04,WSW,248,2.0,4.0,24,0.00,,---,0.00,0.00,VWS V14.01,2013-10-18 09:00:00,
2013-10-18 02:13:00,56.7,21.0,30.04,WSW,258,2.0,3.0,25,0.00,,,0.00,0,weatherlink.com 1.10,2013-10-18 09:13:00,
2013-10-18 02:15:00,57.0,21.5,30.04,West,270,1.0,3.0,25,0.00,,---,0.00,0.00,VWS V14.01,2013-10-18 09:15:00,
2013-10-18 02:28:00,55.9,21.0,30.04,WSW,249,2.0,5.0,26,0.00,,,0.00,0,weatherlink.com 1.10,2013-10-18 09:28:00,
2013-10-18 02:30:00,56.2,21.8,30.04,WSW,248,2.0,5.0,26,0.00,,---,0.00,0.00,VWS V14.01,2013-10-18 09:30:00,
2013-10-18 02:43:00,55.6,19.0,30.04,SW,230,1.0,4.0,24,0.00,,,0.00,0,weatherlink.com 1.10,2013-10-18 09:43:00,
2013-10-18 02:45:00,55.6,19.4,30.04,SW,225,3.0,4.0,24,0.00,,---,0.00,0.00,VWS V14.01,2013-10-18 09:45:00,
2013-10-18 02:58:00,56.2,18.0,30.04,SW,231,2.0,4.0,22,0.00,,,0.00,0,weatherlink.com 1.10,2013-10-18 09:58:00,
2013-10-18 03:00:00,56.1,16.7,30.04,SW,225,3.0,4.0,21,0.00,,---,0.00,0.00,VWS V14.01,2013-10-18 10:00:00,
2013-10-18 03:13:00,56.6,16.0,30.04,West,259,3.0,4.0,20,0.00,,,0.00,0,weatherlink.com 1.10,2013-10-18 10:13:00,
2013-10-18 03:15:00,56.5,15.9,30.04,West,270,3.0,5.0,20,0.00,,---,0.00,0.00,VWS V14.01,2013-10-18 10:15:00,
2013-10-18 03:28:00,56.5,16.0,30.04,WSW,249,1.0,6.0,20,0.00,,,0.00,0,weatherlink.com 1.10,2013-10-18 10:28:00,
2013-10-18 03:30:00,56.5,17.1,30.04,WSW,248,3.0,6.0,21,0.00,,---,0.00,0.00,VWS V14.01,2013-10-18 10:30:00,
2013-10-18 03:43:00,56.3,17.0,30.05,South,177,1.0,5.0,21,0.00,,,0.00,0,weatherlink.com 1.10,2013-10-18 10:43:00,
2013-10-18 03:45:00,56.4,17.0,30.05,South,180,2.0,5.0,21,0.00,,---,0.00,0.00,VWS V14.01,2013-10-18 10:45:00,
2013-10-18 03:58:00,56.0,16.0,30.05,South,177,1.0,3.0,21,0.00,,,0.00,0,weatherlink.com 1.10,2013-10-18 10:58:00,
2013-10-18 04:00:00,56.1,16.7,30.05,South,180,1.0,3.0,21,0.00,,---,0.00,0.00,VWS V14.01,2013-10-18 11:00:00,
2013-10-18 04:13:00,55.7,16.0,30.05,South,177,1.0,2.0,21,0.00,,,0.00,0,weatherlink.com 1.10,2013-10-18 11:13:00,
2013-10-18 04:15:00,55.8,16.5,30.05,South,180,1.0,3.0,21,0.00,,---,0.00,0.00,VWS V14.01,2013-10-18 11:15:00,
2013-10-18 04:28:00,55.3,16.0,30.04,WSW,246,4.0,5.0,21,0.00,,,0.00,0,weatherlink.com 1.10,2013-10-18 11:28:00,
2013-10-18 04:30:00,55.4,16.1,30.05,South,180,3.0,5.0,21,0.00,,---,0.00,0.00,VWS V14.01,2013-10-18 11:30:00,
2013-10-18 04:43:00,55.9,16.0,30.05,WSW,247,1.0,4.0,21,0.00,,,0.00,0,weatherlink.com 1.10,2013-10-18 11:43:00,
2013-10-18 04:45:00,55.6,15.2,30.05,West,270,3.0,6.0,20,0.00,,---,0.00,0.00,VWS V14.01,2013-10-18 11:45:00,
2013-10-18 04:58:00,56.3,16.0,30.06,West,261,4.0,4.0,20,0.00,,,0.00,0,weatherlink.com 1.10,2013-10-18 11:58:00,
2013-10-18 05:00:00,56.3,15.8,30.06,WSW,248,2.0,5.0,20,0.00,,---,0.00,0.00,VWS V14.01,2013-10-18 12:00:00,
2013-10-18 05:13:00,57.2,16.0,30.06,WSW,257,2.0,5.0,20,0.00,,,0.00,0,weatherlink.com 1.10,2013-10-18 12:13:00,
2013-10-18 05:15:00,56.9,16.3,30.06,WSW,248,3.0,6.0,20,0.00,,---,0.00,0.00,VWS V14.01,2013-10-18 12:15:00,
2013-10-18 05:28:00,57.3,16.0,30.06,WSW,257,2.0,4.0,20,0.00,,,0.00,0,weatherlink.com 1.10,2013-10-18 12:28:00,
2013-10-18 05:30:00,57.3,16.6,30.06,WSW,248,2.0,4.0,20,0.00,,---,0.00,0.00,VWS V14.01,2013-10-18 12:30:00,
2013-10-18 05:43:00,56.9,16.0,30.07,WSW,252,2.0,5.0,20,0.00,,,0.00,0,weatherlink.com 1.10,2013-10-18 12:43:00,
2013-10-18 05:45:00,57.1,16.4,30.07,WSW,248,2.0,5.0,20,0.00,,---,0.00,0.00,VWS V14.01,2013-10-18 12:45:00,
2013-10-18 05:58:00,56.3,17.0,30.07,WSW,255,3.0,4.0,21,0.00,,,0.00,0,weatherlink.com 1.10,2013-10-18 12:58:00,
2013-10-18 06:00:00,56.5,17.1,30.07,WSW,248,2.0,4.0,21,0.00,,---,0.00,0.00,VWS V14.01,2013-10-18 13:00:00,
2013-10-18 06:13:00,56.0,16.0,30.07,WSW,255,1.0,3.0,21,0.00,,,0.00,0,weatherlink.com 1.10,2013-10-18 13:13:00,
2013-10-18 06:15:00,56.1,16.7,30.07,WSW,248,2.0,4.0,21,0.00,,---,0.00,0.00,VWS V14.01,2013-10-18 13:15:00,
2013-10-18 06:28:00,55.6,16.0,30.08,WSW,254,3.0,4.0,21,0.00,,,0.00,0,weatherlink.com 1.10,2013-10-18 13:28:00,
2013-10-18 06:30:00,55.7,17.5,30.08,WSW,248,1.0,4.0,22,0.00,,---,0.00,0.00,VWS V14.01,2013-10-18 13:30:00,
2013-10-18 06:43:00,55.0,17.0,30.08,WSW,258,2.0,7.0,22,0.00,,,0.00,0,weatherlink.com 1.10,2013-10-18 13:43:00,
2013-10-18 06:45:00,55.1,17.0,30.08,WSW,248,3.0,7.0,22,0.00,,---,0.00,0.00,VWS V14.01,2013-10-18 13:45:00,
2013-10-18 06:59:00,55.0,17.0,30.09,WSW,250,3.0,5.0,22,0.00,,,0.00,5,weatherlink.com 1.10,2013-10-18 13:59:00,
2013-10-18 07:00:00,54.9,16.8,30.08,WSW,248,3.0,6.0,22,0.00,,---,0.00,2.00,VWS V14.01,2013-10-18 14:00:00,
2013-10-18 07:14:00,55.1,17.0,30.09,WSW,256,4.0,5.0,22,0.00,,,0.00,33,weatherlink.com 1.10,2013-10-18 14:14:00,
2013-10-18 07:15:00,55.1,17.0,30.09,West,270,4.0,6.0,22,0.00,,---,0.00,20.00,VWS V14.01,2013-10-18 14:15:00,
2013-10-18 07:29:00,55.1,17.0,30.09,WSW,253,3.0,4.0,22,0.00,,,0.00,83,weatherlink.com 1.10,2013-10-18 14:29:00,
2013-10-18 07:30:00,55.1,17.0,30.09,WSW,248,2.0,4.0,22,0.00,,---,0.00,68.00,VWS V14.01,2013-10-18 14:30:00,
2013-10-18 07:44:00,55.9,16.0,30.09,WSW,241,2.0,4.0,21,0.00,,,0.00,141,weatherlink.com 1.10,2013-10-18 14:44:00,
2013-10-18 07:45:00,55.5,16.2,30.10,WSW,248,2.0,5.0,21,0.00,,---,0.00,123.00,VWS V14.01,2013-10-18 14:45:00,
2013-10-18 07:59:00,57.2,17.0,30.10,West,265,3.0,6.0,21,0.00,,,0.00,186,weatherlink.com 1.10,2013-10-18 14:59:00,
2013-10-18 08:00:00,56.7,17.2,30.10,West,270,3.0,6.0,21,0.00,,---,0.00,172.00,VWS V14.01,2013-10-18 15:00:00,
2013-10-18 08:14:00,58.4,17.0,30.10,West,270,0.0,4.0,20,0.00,,,0.00,236,weatherlink.com 1.10,2013-10-18 15:14:00,
2013-10-18 08:15:00,58.0,17.2,30.10,West,270,2.0,5.0,20,0.00,,---,0.00,219.00,VWS V14.01,2013-10-18 15:15:00,
2013-10-18 08:29:00,59.8,17.0,30.11,WSW,246,4.0,6.0,19,0.00,,,0.00,285,weatherlink.com 1.10,2013-10-18 15:29:00,
2013-10-18 08:30:00,59.3,17.1,30.11,WSW,248,3.0,6.0,19,0.00,,---,0.00,267.00,VWS V14.01,2013-10-18 15:30:00,
2013-10-18 08:44:00,61.3,17.0,30.12,WSW,247,3.0,7.0,18,0.00,,,0.00,330,weatherlink.com 1.10,2013-10-18 15:44:00,
2013-10-18 08:45:00,60.8,17.0,30.12,WSW,248,3.0,7.0,18,0.00,,---,0.00,315.00,VWS V14.01,2013-10-18 15:45:00,
2013-10-18 08:59:00,63.1,17.0,30.12,West,273,3.0,6.0,17,0.00,,,0.00,378,weatherlink.com 1.10,2013-10-18 15:59:00,
2013-10-18 09:00:00,62.5,17.1,30.12,WSW,248,3.0,6.0,17,0.00,,---,0.00,363.00,VWS V14.01,2013-10-18 16:00:00,
2013-10-18 09:15:00,64.0,16.9,30.12,West,270,3.0,6.0,16,0.00,,---,0.00,407.00,VWS V14.01,2013-10-18 16:15:00,
2013-10-18 09:29:00,65.8,18.0,30.12,WSW,243,0.0,5.0,16,0.00,,,0.00,466,weatherlink.com 1.10,2013-10-18 16:29:00,
2013-10-18 09:30:00,65.2,17.9,30.12,WNW,292,2.0,5.0,16,0.00,,---,0.00,451.00,VWS V14.01,2013-10-18 16:30:00,
2013-10-18 09:44:00,67.1,18.0,30.12,WSW,244,1.0,3.0,15,0.00,,,0.00,510,weatherlink.com 1.10,2013-10-18 16:44:00,
2013-10-18 09:45:00,66.5,17.5,30.12,WSW,248,1.0,3.0,15,0.00,,---,0.00,494.00,VWS V14.01,2013-10-18 16:45:00,
2013-10-18 09:59:00,69.3,18.0,30.12,WSW,244,1.0,2.0,14,0.00,,,0.00,550,weatherlink.com 1.10,2013-10-18 16:59:00,
2013-10-18 10:00:00,68.4,17.4,30.12,WSW,248,0.0,2.0,14,0.00,,---,0.00,535.00,VWS V14.01,2013-10-18 17:00:00,
2013-10-18 10:14:00,71.6,18.0,30.12,SW,217,0.0,2.0,13,0.00,,,0.00,587,weatherlink.com 1.10,2013-10-18 17:14:00,
2013-10-18 10:15:00,70.8,17.6,30.12,WSW,248,0.0,3.0,13,0.00,,---,0.00,574.00,VWS V14.01,2013-10-18 17:15:00,
2013-10-18 10:30:00,73.5,16.0,30.12,SW,217,0.0,0.0,11,0.00,,,0.00,622,weatherlink.com 1.10,2013-10-18 17:30:00,
2013-10-18 10:45:00,74.9,17.0,30.12,NW,317,0.0,3.0,11,0.00,,,0.00,650,weatherlink.com 1.10,2013-10-18 17:45:00,
2013-10-18 11:00:00,74.7,17.0,30.11,NE,47,3.0,4.0,11,0.00,,,0.00,677,weatherlink.com 1.10,2013-10-18 18:00:00,
2013-10-18 11:15:00,74.9,17.0,30.11,East,85,5.0,8.0,11,0.00,,,0.00,701,weatherlink.com 1.10,2013-10-18 18:15:00,
2013-10-18 11:30:00,74.4,16.0,30.11,East,83,3.0,9.0,11,0.00,,,0.00,721,weatherlink.com 1.10,2013-10-18 18:30:00,
2013-10-18 11:45:00,74.6,17.0,30.10,ENE,76,7.0,9.0,11,0.00,,,0.00,735,weatherlink.com 1.10,2013-10-18 18:45:00,
2013-10-18 12:00:00,75.1,17.0,30.09,ENE,60,1.0,8.0,11,0.00,,,0.00,747,weatherlink.com 1.10,2013-10-18 19:00:00,
2013-10-18 12:15:00,76.0,16.0,30.09,ESE,105,3.0,9.0,10,0.00,,,0.00,754,weatherlink.com 1.10,2013-10-18 19:15:00,
2013-10-18 12:30:00,76.5,16.0,30.08,East,91,5.0,10.0,10,0.00,,,0.00,758,weatherlink.com 1.10,2013-10-18 19:30:00,
2013-10-18 12:45:00,76.5,16.0,30.08,ENE,58,3.0,9.0,10,0.00,,,0.00,756,weatherlink.com 1.10,2013-10-18 19:45:00,
2013-10-18 13:00:00,76.7,16.0,30.07,ESE,104,8.0,10.0,10,0.00,,,0.00,751,weatherlink.com 1.10,2013-10-18 20:00:00,
2013-10-18 13:15:00,77.0,16.0,30.07,East,80,2.0,11.0,10,0.00,,,0.00,745,weatherlink.com 1.10,2013-10-18 20:15:00,
2013-10-18 13:30:00,77.6,17.0,30.06,East,101,5.0,9.0,10,0.00,,,0.00,729,weatherlink.com 1.10,2013-10-18 20:30:00,
2013-10-18 13:45:00,79.0,15.0,30.05,SE,141,2.0,9.0,9,0.00,,,0.00,712,weatherlink.com 1.10,2013-10-18 20:45:00,
2013-10-18 14:00:00,78.8,18.0,30.05,East,82,1.0,9.0,10,0.00,,,0.00,693,weatherlink.com 1.10,2013-10-18 21:00:00,
2013-10-18 14:15:00,78.8,15.0,30.04,East,99,3.0,8.0,9,0.00,,,0.00,670,weatherlink.com 1.10,2013-10-18 21:15:00,
2013-10-18 14:30:00,78.8,18.0,30.04,ENE,77,1.0,10.0,10,0.00,,,0.00,642,weatherlink.com 1.10,2013-10-18 21:30:00,
2013-10-18 14:45:00,79.8,16.0,30.03,East,94,2.0,8.0,9,0.00,,,0.00,610,weatherlink.com 1.10,2013-10-18 21:45:00,
2013-10-18 15:00:00,80.7,17.0,30.03,ESE,118,3.0,9.0,9,0.00,,,0.00,573,weatherlink.com 1.10,2013-10-18 22:00:00,
2013-10-18 15:15:00,80.5,17.0,30.03,ENE,78,3.0,9.0,9,0.00,,,0.00,487,weatherlink.com 1.10,2013-10-18 22:15:00,
2013-10-18 15:30:00,80.5,17.0,30.03,ENE,78,2.0,5.0,9,0.00,,,0.00,497,weatherlink.com 1.10,2013-10-18 22:30:00,
2013-10-18 15:45:00,79.9,16.0,30.03,ESE,104,1.0,10.0,9,0.00,,,0.00,459,weatherlink.com 1.10,2013-10-18 22:45:00,
2013-10-18 16:00:00,79.9,16.0,30.02,ENE,78,2.0,9.0,9,0.00,,,0.00,413,weatherlink.com 1.10,2013-10-18 23:00:00,
2013-10-18 16:15:00,80.3,16.0,30.02,East,99,7.0,8.0,9,0.00,,,0.00,369,weatherlink.com 1.10,2013-10-18 23:15:00,
2013-10-18 16:30:00,79.6,16.0,30.02,East,88,7.0,7.0,9,0.00,,,0.00,323,weatherlink.com 1.10,2013-10-18 23:30:00,
2013-10-18 16:45:00,79.2,16.0,30.02,East,95,5.0,9.0,9,0.00,,,0.00,274,weatherlink.com 1.10,2013-10-18 23:45:00,
2013-10-18 17:00:00,78.8,15.0,30.02,East,99,5.0,9.0,9,0.00,,,0.00,227,weatherlink.com 1.10,2013-10-19 00:00:00,
2013-10-18 17:15:00,78.5,15.0,30.02,East,86,5.0,8.0,9,0.00,,,0.00,181,weatherlink.com 1.10,2013-10-19 00:15:00,
2013-10-18 17:30:00,78.1,17.0,30.02,East,87,3.0,7.0,10,0.00,,,0.00,127,weatherlink.com 1.10,2013-10-19 00:30:00,
2013-10-18 17:45:00,77.6,14.0,30.02,ENE,78,5.0,7.0,9,0.00,,,0.00,67,weatherlink.com 1.10,2013-10-19 00:45:00,
2013-10-18 18:00:00,76.8,16.0,30.02,ENE,78,2.0,3.0,10,0.00,,,0.00,19,weatherlink.com 1.10,2013-10-19 01:00:00,
2013-10-18 18:15:00,75.6,15.0,30.03,ENE,78,1.0,2.0,10,0.00,,,0.00,0,weatherlink.com 1.10,2013-10-19 01:15:00,
2013-10-18 18:30:00,74.2,18.0,30.03,ENE,78,0.0,0.0,12,0.00,,,0.00,0,weatherlink.com 1.10,2013-10-19 01:30:00,
2013-10-18 18:45:00,71.5,16.0,30.04,ENE,78,2.0,3.0,12,0.00,,,0.00,0,weatherlink.com 1.10,2013-10-19 01:45:00,
2013-10-18 19:00:00,68.9,14.0,30.04,ENE,78,0.0,2.0,12,0.00,,,0.00,0,weatherlink.com 1.10,2013-10-19 02:00:00,
2013-10-18 19:15:00,67.6,15.0,30.04,ENE,78,0.0,0.0,13,0.00,,,0.00,0,weatherlink.com 1.10,2013-10-19 02:15:00,
2013-10-18 19:26:00,70.0,15.1,30.04,ENE,68,1.0,2.0,12,0.00,,---,0.00,0.00,VWS V14.01,2013-10-19 02:26:00,
2013-10-18 19:30:00,66.0,13.8,30.05,ENE,78,2.0,2.0,13,0.00,,---,0.00,0.00,VWS V14.01,2013-10-19 02:30:00,
2013-10-18 19:31:00,66.0,13.8,30.05,ENE,78,2.0,2.0,13,0.00,,---,0.00,0.00,VWS V14.01,2013-10-19 02:31:00,
2013-10-18 19:36:00,65.6,13.5,30.05,ENE,78,0.0,2.0,13,0.00,,---,0.00,0.00,VWS V14.01,2013-10-19 02:36:00,
2013-10-18 19:41:00,65.5,15.1,30.05,ENE,78,0.0,2.0,14,0.00,,---,0.00,0.00,VWS V14.01,2013-10-19 02:41:00,
2013-10-18 19:45:00,65.3,14.9,30.05,ENE,78,0.0,2.0,14,0.00,,---,0.00,0.00,VWS V14.01,2013-10-19 02:45:00,
2013-10-18 19:46:00,65.3,14.9,30.05,ENE,78,0.0,0.0,14,0.00,,---,0.00,0.00,VWS V14.01,2013-10-19 02:46:00,
2013-10-18 19:51:00,65.0,14.7,30.05,ENE,78,2.0,2.0,14,0.00,,---,0.00,0.00,VWS V14.01,2013-10-19 02:51:00,
2013-10-18 19:56:00,64.5,14.3,30.05,ENE,78,2.0,3.0,14,0.00,,---,0.00,0.00,VWS V14.01,2013-10-19 02:56:00,
2013-10-18 20:00:00,63.9,13.8,30.05,ENE,78,2.0,4.0,14,0.00,,---,0.00,0.00,VWS V14.01,2013-10-19 03:00:00,
2013-10-18 20:01:00,63.9,13.8,30.06,ENE,78,1.0,2.0,14,0.00,,---,0.00,0.00,VWS V14.01,2013-10-19 03:01:00,
2013-10-18 20:06:00,63.5,13.5,30.06,ENE,78,2.0,2.0,14,0.00,,---,0.00,0.00,VWS V14.01,2013-10-19 03:06:00,
2013-10-18 20:12:00,63.1,13.2,30.06,ENE,78,4.0,4.0,14,0.00,,---,0.00,0.00,VWS V14.01,2013-10-19 03:12:00,
2013-10-18 20:15:00,62.7,12.8,30.06,ENE,78,5.0,5.0,14,0.00,,---,0.00,0.00,VWS V14.01,2013-10-19 03:15:00,
2013-10-18 20:17:00,62.7,12.8,30.06,East,80,4.0,5.0,14,0.00,,---,0.00,0.00,VWS V14.01,2013-10-19 03:17:00,
2013-10-18 20:22:00,62.3,12.5,30.06,East,79,3.0,5.0,14,0.00,,---,0.00,0.00,VWS V14.01,2013-10-19 03:22:00,
2013-10-18 20:26:00,62.0,12.3,30.06,East,79,2.0,5.0,14,0.00,,---,0.00,0.00,VWS V14.01,2013-10-19 03:26:00,
2013-10-18 20:30:00,62.0,12.3,30.06,East,79,3.0,5.0,14,0.00,,---,0.00,0.00,VWS V14.01,2013-10-19 03:30:00,
2013-10-18 20:31:00,62.0,12.3,30.06,East,79,4.0,4.0,14,0.00,,---,0.00,0.00,VWS V14.01,2013-10-19 03:31:00,
2013-10-18 20:37:00,61.8,12.1,30.06,East,79,2.0,4.0,14,0.00,,---,0.00,0.00,VWS V14.01,2013-10-19 03:37:00,
2013-10-18 20:42:00,61.8,12.1,30.07,ENE,74,3.0,5.0,14,0.00,,---,0.00,0.00,VWS V14.01,2013-10-19 03:42:00,
2013-10-18 20:45:00,61.6,12.0,30.06,WSW,253,1.0,5.0,14,0.00,,---,0.00,0.00,VWS V14.01,2013-10-19 03:45:00,
2013-10-18 20:47:00,61.6,12.0,30.07,WSW,251,4.0,4.0,14,0.00,,---,0.00,0.00,VWS V14.01,2013-10-19 03:47:00,
2013-10-18 20:52:00,61.5,11.9,30.07,West,263,2.0,5.0,14,0.00,,---,0.00,0.00,VWS V14.01,2013-10-19 03:52:00,
2013-10-18 20:57:00,61.5,11.9,30.07,WSW,247,3.0,5.0,14,0.00,,---,0.00,0.00,VWS V14.01,2013-10-19 03:57:00,
2013-10-18 21:00:00,61.3,11.7,30.07,WSW,253,4.0,5.0,14,0.00,,---,0.00,0.00,VWS V14.01,2013-10-19 04:00:00,
2013-10-18 21:01:00,61.3,11.7,30.07,WSW,253,2.0,5.0,14,0.00,,---,0.00,0.00,VWS V14.01,2013-10-19 04:01:00,
2013-10-18 21:02:00,61.3,11.7,30.07,WSW,253,3.0,4.0,14,0.00,,---,0.00,0.00,VWS V14.01,2013-10-19 04:02:00,
2013-10-18 21:07:00,61.0,13.0,30.07,WSW,253,2.0,4.0,15,0.00,,---,0.00,0.00,VWS V14.01,2013-10-19 04:07:00,
2013-10-18 21:12:00,60.9,13.0,30.07,WSW,253,2.0,4.0,15,0.00,,---,0.00,0.00,VWS V14.01,2013-10-19 04:12:00,
2013-10-18 21:15:00,60.5,12.6,30.07,WSW,253,0.0,4.0,15,0.00,,---,0.00,0.00,VWS V14.01,2013-10-19 04:15:00,
2013-10-18 21:17:00,60.5,12.6,30.07,WSW,253,0.0,0.0,15,0.00,,---,0.00,0.00,VWS V14.01,2013-10-19 04:17:00,
2013-10-18 21:22:00,60.4,14.0,30.07,WSW,253,0.0,0.0,16,0.00,,---,0.00,0.00,VWS V14.01,2013-10-19 04:22:00,
2013-10-18 21:27:00,60.1,13.8,30.07,WSW,253,0.0,0.0,16,0.00,,---,0.00,0.00,VWS V14.01,2013-10-19 04:27:00,
2013-10-18 21:30:00,60.3,13.9,30.07,North,0,0.0,0.0,16,0.00,,---,0.00,0.00,VWS V14.01,2013-10-19 04:30:00,
2013-10-18 21:42:00,58.4,14.0,30.07,WSW,253,0.0,3.0,17,0.00,,,0.00,0,weatherlink.com 1.10,2013-10-19 04:42:00,
2013-10-18 21:45:00,58.9,14.2,30.08,WSW,248,1.0,3.0,17,0.00,,---,0.00,0.00,VWS V14.01,2013-10-19 04:45:00,
2013-10-18 21:57:00,57.6,14.0,30.08,WSW,253,0.0,0.0,18,0.00,,,0.00,0,weatherlink.com 1.10,2013-10-19 04:57:00,
2013-10-18 22:00:00,57.7,14.5,30.08,WSW,248,0.0,0.0,18,0.00,,---,0.00,0.00,VWS V14.01,2013-10-19 05:00:00,
2013-10-18 22:12:00,56.9,14.0,30.08,WSW,253,0.0,0.0,18,0.00,,,0.00,0,weatherlink.com 1.10,2013-10-19 05:12:00,
2013-10-18 22:15:00,57.0,13.9,30.08,WSW,248,0.0,0.0,18,0.00,,---,0.00,0.00,VWS V14.01,2013-10-19 05:15:00,
2013-10-18 22:27:00,55.9,13.0,30.07,WSW,253,0.0,0.0,18,0.00,,,0.00,0,weatherlink.com 1.10,2013-10-19 05:27:00,
2013-10-18 22:30:00,56.1,13.2,30.08,WSW,248,0.0,0.0,18,0.00,,---,0.00,0.00,VWS V14.01,2013-10-19 05:30:00,
2013-10-18 22:42:00,55.6,12.0,30.08,WSW,253,0.0,2.0,18,0.00,,,0.00,0,weatherlink.com 1.10,2013-10-19 05:42:00,
2013-10-18 22:45:00,55.7,12.9,30.08,WSW,248,0.0,2.0,18,0.00,,---,0.00,0.00,VWS V14.01,2013-10-19 05:45:00,
2013-10-18 22:57:00,55.0,12.0,30.08,WSW,253,1.0,2.0,18,0.00,,,0.00,0,weatherlink.com 1.10,2013-10-19 05:57:00,
2013-10-18 23:00:00,55.1,12.4,30.08,WSW,248,1.0,3.0,18,0.00,,---,0.00,0.00,VWS V14.01,2013-10-19 06:00:00,
2013-10-18 23:12:00,54.8,12.0,30.07,WSW,253,2.0,4.0,18,0.00,,,0.00,0,weatherlink.com 1.10,2013-10-19 06:12:00,
2013-10-18 23:15:00,54.7,12.1,30.08,WSW,248,2.0,4.0,18,0.00,,---,0.00,0.00,VWS V14.01,2013-10-19 06:15:00,
2013-10-18 23:27:00,54.7,12.0,30.08,WSW,253,2.0,3.0,18,0.00,,,0.00,0,weatherlink.com 1.10,2013-10-19 06:27:00,
2013-10-18 23:30:00,54.7,12.1,30.08,WSW,248,1.0,3.0,18,0.00,,---,0.00,0.00,VWS V14.01,2013-10-19 06:30:00,
2013-10-18 23:42:00,54.7,12.0,30.08,WSW,253,0.0,2.0,18,0.00,,,0.00,0,weatherlink.com 1.10,2013-10-19 06:42:00,
2013-10-18 23:45:00,54.6,12.0,30.08,WSW,248,0.0,2.0,18,0.00,,---,0.00,0.00,VWS V14.01,2013-10-19 06:45:00,
2013-10-18 23:57:00,54.1,12.0,30.07,WSW,253,0.0,0.0,19,0.00,,,0.00,0,weatherlink.com 1.10,2013-10-19 06:57:00,